Weather History for Millville, NJ

Change the Weather History Date:

Wednesday, January 16, 2013

  Actual Average Record
Temperature  
Mean Temperature 37 °F -  
Max Temperature 39 °F 40 °F 68 °F (1953)
Min Temperature 35 °F 19 °F 0 °F (1982)
Degree Days  
Heating Degree Days 28    
Moisture  
Dew Point 35 °F    
Average Humidity 94    
Maximum Humidity 97    
Minimum Humidity 89    
Precipitation  
Precipitation 0.49 in - - ()
Sea Level Pressure  
Sea Level Pressure 30.01 in    
Wind  
Wind Speed 8 mph (North)    
Max Wind Speed 12 mph    
Max Gust Speed -    
Visibility 6 miles    
Events Rain    
Averages and records for this station are not official NWS values.
T = Trace of Precipitation, MM = Missing Value Source: NWS Daily Summary

Daily Weather History Graph

Daily Weather History Graph

Search for Another Location

Airport:

Trip Planner

Search our weather history database for the weather conditions in past years. The results will help you decide how hot, cold, wet, or windy it might be!

Date:

Astronomy

Jan. 16, 2013 Rise Set
Actual Time 7:18 AM EST 5:02 PM EST
Civil Twilight 6:48 AM EST 5:31 PM EST
Nautical Twilight 6:15 AM EST 6:04 PM EST
Astronomical Twilight 5:43 AM EST 6:37 PM EST
Moon 9:55 AM EST (1/16) 10:49 PM EST (1/16)
Length of Visible Light 10h 43m
Length of Day
9h 44m
Waxing Crescent, 28% of the Moon is Illuminated
Jan 16
Waxing Crescent
Jan 18
First Quarter
Jan 26
Full
Feb 3
Last Quarter
Feb 10
New

Hourly Weather History & Observations

Time (EST) Temp. Windchill Dew Point Humidity Pressure Visibility Wind Dir Wind Speed Gust Speed Precip Events Conditions
12:50 AM 35.6 °F 28.6 °F 33.8 °F 93% 30.14 in 4.0 mi NNE 9.2 mph - 0.10 in Rain Light Rain
1:15 AM 35.6 °F 28.6 °F 33.8 °F 93% 30.12 in 4.0 mi NE 9.2 mph - 0.01 in Rain Light Rain
1:25 AM 35.6 °F 27.5 °F 33.8 °F 93% 30.11 in 2.0 mi NE 11.5 mph - 0.03 in Rain Rain
1:35 AM 35.6 °F 27.5 °F 33.8 °F 93% 30.10 in 2.5 mi NE 11.5 mph - 0.04 in Rain Light Rain
1:54 AM 35.1 °F 29.3 °F 34.0 °F 96% 30.12 in 2.5 mi NE 6.9 mph - 0.06 in Rain Light Rain
2:14 AM 35.6 °F 28.0 °F 33.8 °F 93% 30.11 in 3.0 mi NNE 10.4 mph - 0.03 in Rain Rain
2:22 AM 35.6 °F 28.6 °F 33.8 °F 93% 30.10 in 2.0 mi NNE 9.2 mph - 0.05 in Rain Rain
2:54 AM 35.1 °F 26.9 °F 34.0 °F 96% 30.09 in 2.0 mi NE 11.5 mph - 0.13 in Rain Rain
3:54 AM 36.0 °F 29.6 °F 34.0 °F 93% 30.09 in 2.0 mi North 8.1 mph - 0.13 in Rain Rain
4:24 AM 35.6 °F 28.0 °F 33.8 °F 93% 30.09 in 3.0 mi NNW 10.4 mph - 0.04 in Rain Light Rain
4:36 AM 35.6 °F 28.6 °F 33.8 °F 93% 30.08 in 2.0 mi North 9.2 mph - 0.06 in Rain Rain
4:54 AM 35.1 °F 27.9 °F 33.1 °F 92% 30.07 in 4.0 mi North 9.2 mph - 0.08 in Rain Light Rain
5:54 AM 35.1 °F 26.9 °F 33.1 °F 92% 30.03 in 10.0 mi ENE 11.5 mph - 0.02 in   Overcast
6:04 AM 35.6 °F 27.5 °F 33.8 °F 93% 30.02 in 10.0 mi ENE 11.5 mph - 0.00 in   Overcast
6:33 AM 35.6 °F 29.2 °F 33.8 °F 93% 30.04 in 10.0 mi NNE 8.1 mph - 0.00 in   Overcast
6:54 AM 36.0 °F 32.1 °F 34.0 °F 93% 30.04 in 10.0 mi NE 4.6 mph - 0.00 in   Overcast
7:54 AM 36.0 °F 31.1 °F 34.0 °F 93% 30.03 in 6.0 mi NE 5.8 mph - N/A   Overcast
8:51 AM 37.4 °F 32.8 °F 35.6 °F 93% 30.01 in 10.0 mi East 5.8 mph - 0.00 in Rain Light Rain
8:54 AM 37.0 °F 32.4 °F 35.1 °F 93% 30.01 in 10.0 mi East 5.8 mph - 0.00 in Rain Light Rain
9:02 AM 37.4 °F 32.8 °F 35.6 °F 93% 30.00 in 10.0 mi East 5.8 mph - 0.00 in   Overcast
9:54 AM 37.0 °F - 35.1 °F 93% 30.00 in 7.0 mi Calm Calm - 0.01 in Rain Light Rain
10:54 AM 37.9 °F 35.5 °F 36.0 °F 93% 29.98 in 6.0 mi SSW 3.5 mph - 0.03 in Rain Light Rain
11:21 AM 37.4 °F 34.9 °F 35.6 °F 93% 29.98 in 10.0 mi WNW 3.5 mph - 0.00 in Rain Light Rain
11:54 AM 37.9 °F 32.7 °F 37.0 °F 97% 29.97 in 9.0 mi WSW 6.9 mph - 0.01 in Rain Light Rain
12:54 PM 39.0 °F 36.8 °F 37.0 °F 93% 29.91 in 10.0 mi Variable 3.5 mph - 0.00 in   Overcast
1:54 PM 39.0 °F 35.7 °F 37.9 °F 96% 29.84 in 10.0 mi Variable 4.6 mph - 0.00 in   Overcast
2:44 PM 39.2 °F 35.0 °F 37.4 °F 93% 29.90 in 6.0 mi West 5.8 mph - N/A   Overcast
2:54 PM 39.9 °F 32.9 °F 37.9 °F 93% 29.95 in 6.0 mi WNW 11.5 mph - N/A   Overcast
3:54 PM 39.9 °F 33.4 °F 37.9 °F 93% 29.94 in 5.0 mi WNW 10.4 mph - 0.01 in Rain Light Rain
4:54 PM 39.0 °F 32.8 °F 36.0 °F 89% 29.96 in 5.0 mi NW 9.2 mph - 0.00 in Rain Light Rain
5:54 PM 37.9 °F - 37.0 °F 97% 29.94 in 6.0 mi Calm Calm - 0.00 in   Mostly Cloudy
6:13 PM 39.2 °F 35.0 °F 37.4 °F 93% 29.96 in 6.0 mi WNW 5.8 mph - 0.00 in Rain Light Rain
6:54 PM 39.0 °F 34.0 °F 37.0 °F 93% 29.98 in 7.0 mi West 6.9 mph - 0.00 in   Overcast
7:54 PM 37.9 °F - 37.0 °F 97% 29.96 in 5.0 mi Calm Calm - N/A   Overcast
8:07 PM 39.2 °F 37.0 °F 37.4 °F 93% 29.98 in 5.0 mi West 3.5 mph - N/A   Overcast
8:54 PM 39.0 °F 34.8 °F 37.0 °F 93% 29.98 in 4.0 mi WSW 5.8 mph - N/A   Overcast
9:54 PM 39.0 °F 36.8 °F 37.0 °F 93% 29.96 in 4.0 mi West 3.5 mph - N/A   Overcast
10:54 PM 39.0 °F - 37.9 °F 96% 29.99 in 4.0 mi Calm Calm - 0.00 in   Overcast
11:54 PM 39.0 °F 36.8 °F 37.9 °F 96% 29.98 in 4.0 mi WSW 3.5 mph - 0.01 in Rain Light Rain